Time,TemperatureF,DewpointF,PressureIn,WindDirection,WindDirectionDegrees,WindSpeedMPH,WindSpeedGustMPH,Humidity,HourlyPrecipIn,Conditions,Clouds,dailyrainin,SoftwareType,DateUTC
2013-02-02 00:00:00,15.8,2.1,30.06,ENE,68,4.0,4.3,54,0.00,,---,0.00,VWS V14.01,2013-02-02 05:00:00,
2013-02-02 00:05:00,15.8,2.1,30.06,SSW,202,2.0,3.1,54,0.00,,---,0.00,VWS V14.01,2013-02-02 05:05:00,
2013-02-02 00:10:00,15.8,2.1,30.06,NE,45,2.7,6.7,54,0.00,,---,0.00,VWS V14.01,2013-02-02 05:10:00,
2013-02-02 00:15:00,15.4,2.2,30.06,SE,135,8.1,8.1,55,0.00,,---,0.00,VWS V14.01,2013-02-02 05:15:00,
2013-02-02 00:20:00,15.1,2.2,30.06,NW,315,3.4,4.9,56,0.00,,---,0.00,VWS V14.01,2013-02-02 05:20:00,
2013-02-02 00:25:00,15.1,2.2,30.06,West,270,4.3,4.3,56,0.00,,---,0.00,VWS V14.01,2013-02-02 05:25:00,
2013-02-02 00:30:00,15.3,2.8,30.06,East,90,2.7,2.7,57,0.00,,---,0.00,VWS V14.01,2013-02-02 05:30:00,
2013-02-02 00:35:00,15.3,3.2,30.06,East,90,0.0,2.2,58,0.00,,---,0.00,VWS V14.01,2013-02-02 05:35:00,
2013-02-02 00:40:00,15.3,3.2,30.06,West,270,0.9,2.0,58,0.00,,---,0.00,VWS V14.01,2013-02-02 05:40:00,
2013-02-02 00:45:00,15.3,2.8,30.06,West,270,3.6,4.3,57,0.00,,---,0.00,VWS V14.01,2013-02-02 05:45:00,
2013-02-02 00:50:00,15.1,2.2,30.06,WNW,292,2.5,2.5,56,0.00,,---,0.00,VWS V14.01,2013-02-02 05:50:00,
2013-02-02 00:55:00,15.1,2.2,30.06,ESE,112,4.3,4.3,56,0.00,,---,0.00,VWS V14.01,2013-02-02 05:55:00,
2013-02-02 01:00:00,14.9,2.0,30.09,SE,135,3.4,3.4,56,0.00,,---,0.00,VWS V14.01,2013-02-02 06:00:00,
2013-02-02 01:05:00,14.9,2.0,30.09,WSW,248,0.9,3.6,56,0.00,,---,0.00,VWS V14.01,2013-02-02 06:05:00,
2013-02-02 01:10:00,14.9,2.0,30.09,ESE,112,3.8,3.8,56,0.00,,---,0.00,VWS V14.01,2013-02-02 06:10:00,
2013-02-02 01:15:00,14.9,2.0,30.09,WNW,292,2.2,2.9,56,0.00,,---,0.00,VWS V14.01,2013-02-02 06:15:00,
2013-02-02 01:20:00,14.9,2.0,30.09,NNW,338,4.0,9.2,56,0.00,,---,0.00,VWS V14.01,2013-02-02 06:20:00,
2013-02-02 01:25:00,14.9,2.0,30.09,WNW,292,1.6,4.9,56,0.00,,---,0.00,VWS V14.01,2013-02-02 06:25:00,
2013-02-02 01:30:00,14.5,1.3,30.09,ENE,68,3.6,3.8,55,0.00,,---,0.00,VWS V14.01,2013-02-02 06:30:00,
2013-02-02 01:36:00,14.4,1.2,30.09,SSE,158,4.0,4.0,55,0.00,,---,0.00,VWS V14.01,2013-02-02 06:36:00,
2013-02-02 01:41:00,14.4,0.8,30.09,SSE,158,2.5,5.6,54,0.00,,---,0.00,VWS V14.01,2013-02-02 06:41:00,
2013-02-02 01:46:00,14.2,0.6,30.09,ESE,112,0.0,4.0,54,0.00,,---,0.00,VWS V14.01,2013-02-02 06:46:00,
2013-02-02 01:51:00,14.2,0.6,30.09,ESE,112,0.9,1.3,54,0.00,,---,0.00,VWS V14.01,2013-02-02 06:51:00,
2013-02-02 01:56:00,13.8,0.3,30.09,ESE,112,4.7,4.7,54,0.00,,---,0.00,VWS V14.01,2013-02-02 06:56:00,
2013-02-02 02:01:00,13.6,0.1,30.09,ESE,112,2.7,3.8,54,0.00,,---,0.00,VWS V14.01,2013-02-02 07:01:00,
2013-02-02 02:06:00,13.6,0.1,30.09,SE,135,3.4,5.6,54,0.00,,---,0.00,VWS V14.01,2013-02-02 07:06:00,
2013-02-02 02:11:00,13.6,0.1,30.09,South,180,2.7,4.0,54,0.00,,---,0.00,VWS V14.01,2013-02-02 07:11:00,
2013-02-02 02:16:00,13.5,-0.1,30.12,WNW,292,1.1,1.3,54,0.00,,---,0.00,VWS V14.01,2013-02-02 07:16:00,
2013-02-02 02:21:00,13.5,-0.1,30.12,SE,135,2.7,5.8,54,0.00,,---,0.00,VWS V14.01,2013-02-02 07:21:00,
2013-02-02 02:26:00,13.3,-0.2,30.12,SW,225,2.0,2.7,54,0.00,,---,0.00,VWS V14.01,2013-02-02 07:26:00,
2013-02-02 02:31:00,13.3,-0.2,30.09,East,90,4.7,4.7,54,0.00,,---,0.00,VWS V14.01,2013-02-02 07:31:00,
2013-02-02 02:36:00,13.3,-0.2,30.09,South,180,2.5,3.8,54,0.00,,---,0.00,VWS V14.01,2013-02-02 07:36:00,
2013-02-02 02:41:00,13.1,-0.4,30.09,SE,135,1.6,7.4,54,0.00,,---,0.00,VWS V14.01,2013-02-02 07:41:00,
2013-02-02 02:46:00,13.1,-0.4,30.12,ENE,68,4.5,4.7,54,0.00,,---,0.00,VWS V14.01,2013-02-02 07:46:00,
2013-02-02 02:51:00,12.9,-0.6,30.12,East,90,4.0,4.0,54,0.00,,---,0.00,VWS V14.01,2013-02-02 07:51:00,
2013-02-02 02:56:00,12.9,-0.6,30.12,East,90,3.6,3.6,54,0.00,,---,0.00,VWS V14.01,2013-02-02 07:56:00,
2013-02-02 03:01:00,12.9,-0.6,30.12,South,180,2.5,4.3,54,0.00,,---,0.00,VWS V14.01,2013-02-02 08:01:00,
2013-02-02 03:06:00,12.7,-0.8,30.12,NW,315,1.3,3.4,54,0.00,,---,0.00,VWS V14.01,2013-02-02 08:06:00,
2013-02-02 03:11:00,12.6,-0.9,30.12,SW,225,1.3,2.2,54,0.00,,---,0.00,VWS V14.01,2013-02-02 08:11:00,
2013-02-02 03:16:00,12.6,-0.9,30.12,WNW,292,1.1,3.4,54,0.00,,---,0.00,VWS V14.01,2013-02-02 08:16:00,
2013-02-02 03:21:00,12.6,-0.9,30.12,SE,135,1.1,3.1,54,0.00,,---,0.00,VWS V14.01,2013-02-02 08:21:00,
2013-02-02 03:26:00,12.6,-0.9,30.12,NNE,22,1.1,3.6,54,0.00,,---,0.00,VWS V14.01,2013-02-02 08:26:00,
2013-02-02 03:31:00,12.4,-1.1,30.12,West,270,1.3,1.6,54,0.00,,---,0.00,VWS V14.01,2013-02-02 08:31:00,
2013-02-02 03:36:00,12.2,-1.3,30.12,East,90,0.0,1.6,54,0.00,,---,0.00,VWS V14.01,2013-02-02 08:36:00,
2013-02-02 03:41:00,12.2,-1.3,30.12,WNW,292,2.5,3.6,54,0.00,,---,0.00,VWS V14.01,2013-02-02 08:41:00,
2013-02-02 03:46:00,12.4,-1.1,30.12,ESE,112,2.9,2.9,54,0.00,,---,0.00,VWS V14.01,2013-02-02 08:46:00,
2013-02-02 03:51:00,12.2,-1.3,30.12,NNE,22,0.0,2.5,54,0.00,,---,0.00,VWS V14.01,2013-02-02 08:51:00,
2013-02-02 03:56:00,12.2,-1.3,30.12,SE,135,1.1,1.6,54,0.00,,---,0.00,VWS V14.01,2013-02-02 08:56:00,
2013-02-02 04:01:00,12.2,-1.3,30.12,WNW,292,2.5,2.5,54,0.00,,---,0.00,VWS V14.01,2013-02-02 09:01:00,
2013-02-02 04:06:00,12.2,-1.3,30.12,WSW,248,1.3,2.0,54,0.00,,---,0.00,VWS V14.01,2013-02-02 09:06:00,
2013-02-02 04:11:00,12.0,-1.4,30.12,WNW,292,3.1,3.1,54,0.00,,---,0.00,VWS V14.01,2013-02-02 09:11:00,
2013-02-02 04:16:00,12.0,-1.4,30.15,WNW,292,1.6,1.6,54,0.00,,---,0.00,VWS V14.01,2013-02-02 09:16:00,
2013-02-02 04:21:00,11.8,-1.6,30.15,WSW,248,0.9,2.0,54,0.00,,---,0.00,VWS V14.01,2013-02-02 09:21:00,
2013-02-02 04:26:00,11.7,-1.8,30.15,North,0,1.3,3.1,54,0.00,,---,0.00,VWS V14.01,2013-02-02 09:26:00,
2013-02-02 04:31:00,11.8,-1.6,30.12,NE,45,0.9,1.6,54,0.00,,---,0.00,VWS V14.01,2013-02-02 09:31:00,
2013-02-02 04:36:00,11.7,-1.8,30.12,East,90,2.2,3.4,54,0.00,,---,0.00,VWS V14.01,2013-02-02 09:36:00,
2013-02-02 04:41:00,11.5,-1.9,30.12,SSE,158,3.1,3.1,54,0.00,,---,0.00,VWS V14.01,2013-02-02 09:41:00,
2013-02-02 04:46:00,11.3,-2.1,30.12,South,180,0.0,0.9,54,0.00,,---,0.00,VWS V14.01,2013-02-02 09:46:00,
2013-02-02 04:51:00,11.3,-2.1,30.12,SSE,158,0.0,1.3,54,0.00,,---,0.00,VWS V14.01,2013-02-02 09:51:00,
2013-02-02 04:56:00,11.1,-2.3,30.12,SSE,158,0.0,0.9,54,0.00,,---,0.00,VWS V14.01,2013-02-02 09:56:00,
2013-02-02 05:01:00,11.1,-2.3,30.12,SE,135,0.0,0.0,54,0.00,,---,0.00,VWS V14.01,2013-02-02 10:01:00,
2013-02-02 05:06:00,11.1,-2.3,30.12,SE,135,2.5,2.7,54,0.00,,---,0.00,VWS V14.01,2013-02-02 10:06:00,
2013-02-02 05:11:00,11.1,-2.3,30.12,ESE,112,0.0,0.0,54,0.00,,---,0.00,VWS V14.01,2013-02-02 10:11:00,
2013-02-02 05:16:00,10.9,-2.4,30.12,East,90,2.9,2.9,54,0.00,,---,0.00,VWS V14.01,2013-02-02 10:16:00,
2013-02-02 05:21:00,10.8,-2.6,30.12,SSE,158,0.0,0.0,54,0.00,,---,0.00,VWS V14.01,2013-02-02 10:21:00,
2013-02-02 05:26:00,10.8,-2.6,30.12,SSE,158,0.0,0.0,54,0.00,,---,0.00,VWS V14.01,2013-02-02 10:26:00,
2013-02-02 05:31:00,10.4,-2.9,30.12,ESE,112,0.9,0.9,54,0.00,,---,0.00,VWS V14.01,2013-02-02 10:31:00,
2013-02-02 05:36:00,10.2,-3.1,30.12,East,90,0.0,1.6,54,0.00,,---,0.00,VWS V14.01,2013-02-02 10:36:00,
2013-02-02 05:41:00,10.2,-3.1,30.12,ESE,112,2.0,2.0,54,0.00,,---,0.00,VWS V14.01,2013-02-02 10:41:00,
2013-02-02 05:46:00,10.0,-3.3,30.12,NE,45,0.0,1.3,54,0.00,,---,0.00,VWS V14.01,2013-02-02 10:46:00,
2013-02-02 05:51:00,10.0,-3.3,30.12,SE,135,1.6,1.6,54,0.00,,---,0.00,VWS V14.01,2013-02-02 10:51:00,
2013-02-02 05:56:00,10.0,-3.3,30.12,SW,225,0.0,0.0,54,0.00,,---,0.00,VWS V14.01,2013-02-02 10:56:00,
2013-02-02 06:01:00,10.0,-3.3,30.12,WSW,248,0.0,0.0,54,0.00,,---,0.00,VWS V14.01,2013-02-02 11:01:00,
2013-02-02 06:06:00,9.9,-3.5,30.12,NW,315,0.0,0.0,54,0.00,,---,0.00,VWS V14.01,2013-02-02 11:06:00,
2013-02-02 06:11:00,9.9,-3.5,30.12,WNW,292,0.0,0.0,54,0.00,,---,0.00,VWS V14.01,2013-02-02 11:11:00,
2013-02-02 06:16:00,9.7,-3.6,30.15,West,270,0.0,0.0,54,0.00,,---,0.00,VWS V14.01,2013-02-02 11:16:00,
2013-02-02 06:21:00,9.5,-3.8,30.15,ESE,112,0.0,0.0,54,0.00,,---,0.00,VWS V14.01,2013-02-02 11:21:00,
2013-02-02 06:26:00,9.5,-3.8,30.15,WNW,292,0.0,0.0,54,0.00,,---,0.00,VWS V14.01,2013-02-02 11:26:00,
2013-02-02 06:31:00,9.3,-4.0,30.15,SSE,158,0.0,0.0,54,0.00,,---,0.00,VWS V14.01,2013-02-02 11:31:00,
2013-02-02 06:36:00,9.3,-4.0,30.15,SE,135,0.0,0.0,54,0.00,,---,0.00,VWS V14.01,2013-02-02 11:36:00,
2013-02-02 06:41:00,9.1,-4.1,30.15,North,0,1.3,1.3,54,0.00,,---,0.00,VWS V14.01,2013-02-02 11:41:00,
2013-02-02 06:46:00,9.3,-4.0,30.15,NW,315,0.0,0.0,54,0.00,,---,0.00,VWS V14.01,2013-02-02 11:46:00,
2013-02-02 06:51:00,9.3,-4.0,30.15,NNE,22,0.0,0.0,54,0.00,,---,0.00,VWS V14.01,2013-02-02 11:51:00,
2013-02-02 06:56:00,9.1,-4.1,30.15,WNW,292,1.1,1.3,54,0.00,,---,0.00,VWS V14.01,2013-02-02 11:56:00,
2013-02-02 07:01:00,9.1,-4.1,30.15,NNW,338,0.0,0.0,54,0.00,,---,0.00,VWS V14.01,2013-02-02 12:01:00,
2013-02-02 07:06:00,9.1,-4.1,30.15,NE,45,0.0,0.0,54,0.00,,---,0.00,VWS V14.01,2013-02-02 12:06:00,
2013-02-02 07:11:00,9.1,-4.1,30.15,SE,135,0.0,0.0,54,0.00,,---,0.00,VWS V14.01,2013-02-02 12:11:00,
2013-02-02 07:16:00,9.3,-4.0,30.15,SE,135,0.0,0.9,54,0.00,,---,0.00,VWS V14.01,2013-02-02 12:16:00,
2013-02-02 07:21:00,9.1,-4.1,30.15,NW,315,0.0,3.1,54,0.00,,---,0.00,VWS V14.01,2013-02-02 12:21:00,
2013-02-02 07:26:00,9.3,-4.0,30.15,ENE,68,0.9,0.9,54,0.00,,---,0.00,VWS V14.01,2013-02-02 12:26:00,
2013-02-02 07:31:00,9.3,-4.0,30.18,SE,135,0.0,1.3,54,0.00,,---,0.00,VWS V14.01,2013-02-02 12:31:00,
2013-02-02 07:36:00,9.5,-3.8,30.18,SE,135,1.3,1.3,54,0.00,,---,0.00,VWS V14.01,2013-02-02 12:36:00,
2013-02-02 07:41:00,9.7,-3.6,30.18,East,90,0.0,0.0,54,0.00,,---,0.00,VWS V14.01,2013-02-02 12:41:00,
2013-02-02 07:46:00,10.2,-3.1,30.15,SE,135,0.0,0.0,54,0.00,,---,0.00,VWS V14.01,2013-02-02 12:46:00,
2013-02-02 07:51:00,10.9,-2.4,30.15,SE,135,1.6,1.6,54,0.00,,---,0.00,VWS V14.01,2013-02-02 12:51:00,
2013-02-02 07:57:00,11.5,-1.9,30.15,South,180,1.1,2.5,54,0.00,,---,0.00,VWS V14.01,2013-02-02 12:57:00,
2013-02-02 08:02:00,12.4,-1.1,30.18,East,90,2.0,2.0,54,0.00,,---,0.00,VWS V14.01,2013-02-02 13:02:00,
2013-02-02 08:07:00,12.9,-0.6,30.18,SE,135,0.0,2.9,54,0.00,,---,0.00,VWS V14.01,2013-02-02 13:07:00,
2013-02-02 08:12:00,13.5,-0.1,30.18,SSE,158,0.0,2.0,54,0.00,,---,0.00,VWS V14.01,2013-02-02 13:12:00,
2013-02-02 08:17:00,13.8,0.3,30.15,ESE,112,1.3,2.9,54,0.00,,---,0.00,VWS V14.01,2013-02-02 13:17:00,
2013-02-02 08:22:00,14.7,1.1,30.15,SE,135,2.2,3.1,54,0.00,,---,0.00,VWS V14.01,2013-02-02 13:22:00,
2013-02-02 08:27:00,15.4,1.4,30.15,East,90,0.0,2.5,53,0.00,,---,0.00,VWS V14.01,2013-02-02 13:27:00,
2013-02-02 08:32:00,16.0,1.5,30.18,SE,135,0.0,0.9,52,0.00,,---,0.00,VWS V14.01,2013-02-02 13:32:00,
2013-02-02 08:37:00,16.0,1.1,30.18,East,90,3.4,4.7,51,0.00,,---,0.00,VWS V14.01,2013-02-02 13:37:00,
2013-02-02 08:42:00,16.0,1.1,30.18,ESE,112,1.1,3.8,51,0.00,,---,0.00,VWS V14.01,2013-02-02 13:42:00,
2013-02-02 08:47:00,16.7,2.1,30.18,ESE,112,0.0,0.0,52,0.00,,---,0.00,VWS V14.01,2013-02-02 13:47:00,
2013-02-02 08:52:00,16.9,1.9,30.18,East,90,1.3,2.5,51,0.00,,---,0.00,VWS V14.01,2013-02-02 13:52:00,
2013-02-02 08:57:00,16.9,2.3,30.18,SSE,158,1.1,1.3,52,0.00,,---,0.00,VWS V14.01,2013-02-02 13:57:00,
2013-02-02 09:02:00,17.6,3.0,30.18,SE,135,0.0,1.3,52,0.00,,---,0.00,VWS V14.01,2013-02-02 14:02:00,
2013-02-02 09:07:00,18.3,3.2,30.18,SE,135,0.0,1.6,51,0.00,,---,0.00,VWS V14.01,2013-02-02 14:07:00,
2013-02-02 09:12:00,18.5,3.4,30.18,SE,135,1.6,3.4,51,0.00,,---,0.00,VWS V14.01,2013-02-02 14:12:00,
2013-02-02 09:17:00,18.5,3.4,30.18,ENE,68,3.6,3.6,51,0.00,,---,0.00,VWS V14.01,2013-02-02 14:17:00,
2013-02-02 09:22:00,18.5,3.0,30.18,SE,135,2.5,3.1,50,0.00,,---,0.00,VWS V14.01,2013-02-02 14:22:00,
2013-02-02 09:27:00,18.3,2.4,30.18,South,180,3.6,3.6,49,0.00,,---,0.00,VWS V14.01,2013-02-02 14:27:00,
2013-02-02 09:32:00,18.1,2.6,30.18,WSW,248,0.0,0.0,50,0.00,,---,0.00,VWS V14.01,2013-02-02 14:32:00,
2013-02-02 09:37:00,18.1,3.1,30.18,ESE,112,0.9,0.9,51,0.00,,---,0.00,VWS V14.01,2013-02-02 14:37:00,
2013-02-02 09:42:00,18.1,2.6,30.18,ESE,112,2.5,2.5,50,0.00,,---,0.00,VWS V14.01,2013-02-02 14:42:00,
2013-02-02 09:47:00,18.1,2.6,30.18,West,270,2.0,2.7,50,0.00,,---,0.00,VWS V14.01,2013-02-02 14:47:00,
2013-02-02 09:52:00,18.3,3.2,30.18,West,270,0.0,0.0,51,0.00,,---,0.00,VWS V14.01,2013-02-02 14:52:00,
2013-02-02 09:57:00,18.7,3.1,30.18,WSW,248,1.1,3.4,50,0.00,,---,0.00,VWS V14.01,2013-02-02 14:57:00,
2013-02-02 10:02:00,19.4,3.8,30.15,West,270,2.2,2.2,50,0.00,,---,0.00,VWS V14.01,2013-02-02 15:02:00,
2013-02-02 10:07:00,20.5,4.8,30.15,WNW,292,2.5,2.5,50,0.00,,---,0.00,VWS V14.01,2013-02-02 15:07:00,
2013-02-02 10:12:00,20.5,4.4,30.15,NE,45,6.0,6.0,49,0.00,,---,0.00,VWS V14.01,2013-02-02 15:12:00,
2013-02-02 10:17:00,20.8,4.2,30.15,ESE,112,1.6,1.6,48,0.00,,---,0.00,VWS V14.01,2013-02-02 15:17:00,
2013-02-02 10:22:00,21.2,4.6,30.15,WNW,292,2.5,2.5,48,0.00,,---,0.00,VWS V14.01,2013-02-02 15:22:00,
2013-02-02 10:27:00,21.7,5.5,30.15,East,90,1.1,4.7,49,0.00,,---,0.00,VWS V14.01,2013-02-02 15:27:00,
2013-02-02 10:32:00,22.3,5.1,30.15,SE,135,2.2,2.2,47,0.00,,---,0.00,VWS V14.01,2013-02-02 15:32:00,
2013-02-02 10:37:00,22.8,6.5,30.15,SE,135,3.6,3.6,49,0.00,,---,0.00,VWS V14.01,2013-02-02 15:37:00,
2013-02-02 10:42:00,21.9,4.3,30.15,WNW,292,2.0,4.3,46,0.00,,---,0.00,VWS V14.01,2013-02-02 15:42:00,
2013-02-02 10:47:00,22.6,5.5,30.15,ESE,112,5.4,5.6,47,0.00,,---,0.00,VWS V14.01,2013-02-02 15:47:00,
2013-02-02 10:52:00,22.3,4.7,30.15,SE,135,1.6,3.4,46,0.00,,---,0.00,VWS V14.01,2013-02-02 15:52:00,
2013-02-02 10:57:00,22.6,5.5,30.15,ENE,68,0.9,1.1,47,0.00,,---,0.00,VWS V14.01,2013-02-02 15:57:00,
2013-02-02 11:02:00,22.6,5.0,30.12,SE,135,1.6,4.9,46,0.00,,---,0.00,VWS V14.01,2013-02-02 16:02:00,
2013-02-02 11:07:00,22.8,5.2,30.12,WNW,292,2.0,2.0,46,0.00,,---,0.00,VWS V14.01,2013-02-02 16:07:00,
2013-02-02 11:12:00,23.2,5.5,30.12,ESE,112,3.8,3.8,46,0.00,,---,0.00,VWS V14.01,2013-02-02 16:12:00,
2013-02-02 11:17:00,23.5,4.8,30.12,NNE,22,3.6,3.6,44,0.00,,---,0.00,VWS V14.01,2013-02-02 16:17:00,
2013-02-02 11:22:00,24.3,5.5,30.12,East,90,2.0,3.8,44,0.00,,---,0.00,VWS V14.01,2013-02-02 16:22:00,
2013-02-02 11:27:00,25.0,6.7,30.12,SSE,158,1.1,2.5,45,0.00,,---,0.00,VWS V14.01,2013-02-02 16:27:00,
2013-02-02 11:32:00,25.5,6.7,30.12,North,0,1.1,1.6,44,0.00,,---,0.00,VWS V14.01,2013-02-02 16:32:00,
2013-02-02 11:37:00,25.5,6.2,30.12,South,180,1.3,2.0,43,0.00,,---,0.00,VWS V14.01,2013-02-02 16:37:00,
2013-02-02 11:42:00,25.7,6.8,30.12,South,180,1.3,2.7,44,0.00,,---,0.00,VWS V14.01,2013-02-02 16:42:00,
2013-02-02 11:47:00,27.0,8.0,30.12,South,180,1.1,1.6,44,0.00,,---,0.00,VWS V14.01,2013-02-02 16:47:00,
2013-02-02 11:52:00,27.0,6.9,30.12,SSW,202,2.5,5.8,42,0.00,,---,0.00,VWS V14.01,2013-02-02 16:52:00,
2013-02-02 11:57:00,26.8,6.8,30.12,SSE,158,2.5,2.7,42,0.00,,---,0.00,VWS V14.01,2013-02-02 16:57:00,
2013-02-02 12:02:00,27.9,8.3,30.09,South,180,1.1,1.3,43,0.00,,---,0.00,VWS V14.01,2013-02-02 17:02:00,
2013-02-02 12:07:00,27.3,6.7,30.09,ESE,112,2.5,7.8,41,0.00,,---,0.00,VWS V14.01,2013-02-02 17:07:00,
2013-02-02 12:12:00,25.2,4.8,30.09,SE,135,6.3,6.3,41,0.00,,---,0.00,VWS V14.01,2013-02-02 17:12:00,
2013-02-02 12:17:00,25.0,4.6,30.09,SE,135,0.0,2.5,41,0.00,,---,0.00,VWS V14.01,2013-02-02 17:17:00,
2013-02-02 12:22:00,24.4,4.7,30.09,SE,135,2.0,3.4,42,0.00,,---,0.00,VWS V14.01,2013-02-02 17:22:00,
2013-02-02 12:28:00,25.3,4.9,30.09,NNE,22,4.7,4.7,41,0.00,,---,0.00,VWS V14.01,2013-02-02 17:28:00,
2013-02-02 12:33:00,26.4,6.4,30.06,WSW,248,0.0,0.0,42,0.00,,---,0.00,VWS V14.01,2013-02-02 17:33:00,
2013-02-02 12:38:00,27.1,6.6,30.06,West,270,2.2,2.9,41,0.00,,---,0.00,VWS V14.01,2013-02-02 17:38:00,
2013-02-02 12:43:00,27.9,7.2,30.06,West,270,2.0,2.7,41,0.00,,---,0.00,VWS V14.01,2013-02-02 17:43:00,
2013-02-02 12:48:00,28.8,8.0,30.03,WNW,292,3.6,6.0,41,0.00,,---,0.00,VWS V14.01,2013-02-02 17:48:00,
2013-02-02 12:53:00,29.1,7.3,30.03,West,270,2.7,4.9,39,0.00,,---,0.00,VWS V14.01,2013-02-02 17:53:00,
2013-02-02 12:58:00,29.7,8.3,30.03,WNW,292,3.4,3.4,40,0.00,,---,0.00,VWS V14.01,2013-02-02 17:58:00,
2013-02-02 13:03:00,29.7,8.3,30.03,SE,135,2.7,3.4,40,0.00,,---,0.00,VWS V14.01,2013-02-02 18:03:00,
2013-02-02 13:08:00,30.2,7.1,30.03,SE,135,2.5,4.7,37,0.00,,---,0.00,VWS V14.01,2013-02-02 18:08:00,
2013-02-02 13:13:00,30.4,6.6,30.03,West,270,2.9,2.9,36,0.00,,---,0.00,VWS V14.01,2013-02-02 18:13:00,
2013-02-02 13:18:00,29.7,4.1,30.06,South,180,2.2,3.1,33,0.00,,---,0.00,VWS V14.01,2013-02-02 18:18:00,
2013-02-02 13:23:00,29.3,3.8,30.06,SSE,158,1.6,5.8,33,0.00,,---,0.00,VWS V14.01,2013-02-02 18:23:00,
2013-02-02 13:28:00,28.6,3.1,30.06,SE,135,8.1,8.1,33,0.00,,---,0.00,VWS V14.01,2013-02-02 18:28:00,
2013-02-02 13:33:00,27.7,3.6,30.06,WNW,292,3.1,3.1,35,0.00,,---,0.00,VWS V14.01,2013-02-02 18:33:00,
2013-02-02 13:38:00,27.0,1.0,30.06,West,270,3.4,4.9,32,0.00,,---,0.00,VWS V14.01,2013-02-02 18:38:00,
2013-02-02 13:43:00,27.0,1.7,30.06,South,180,2.9,4.0,33,0.00,,---,0.00,VWS V14.01,2013-02-02 18:43:00,
2013-02-02 13:48:00,26.1,0.2,30.03,West,270,2.0,6.5,32,0.00,,---,0.00,VWS V14.01,2013-02-02 18:48:00,
2013-02-02 13:53:00,25.5,-0.2,30.03,WSW,248,4.0,4.0,32,0.00,,---,0.00,VWS V14.01,2013-02-02 18:53:00,
2013-02-02 13:58:00,25.3,0.3,30.03,West,270,2.9,2.9,33,0.00,,---,0.00,VWS V14.01,2013-02-02 18:58:00,
2013-02-02 14:03:00,25.2,0.8,30.03,ESE,112,5.4,5.4,34,0.00,,---,0.00,VWS V14.01,2013-02-02 19:03:00,
2013-02-02 14:08:00,24.4,-1.2,30.03,NE,45,4.0,4.0,32,0.00,,---,0.00,VWS V14.01,2013-02-02 19:08:00,
2013-02-02 14:13:00,24.4,-0.5,30.03,SE,135,2.0,3.8,33,0.00,,---,0.00,VWS V14.01,2013-02-02 19:13:00,
2013-02-02 14:18:00,24.4,0.1,30.03,SSW,202,0.0,3.1,34,0.00,,---,0.00,VWS V14.01,2013-02-02 19:18:00,
2013-02-02 14:23:00,24.4,-0.5,30.03,NNE,22,2.9,4.0,33,0.00,,---,0.00,VWS V14.01,2013-02-02 19:23:00,
2013-02-02 14:28:00,24.4,0.7,30.03,SSE,158,0.0,0.0,35,0.00,,---,0.00,VWS V14.01,2013-02-02 19:28:00,
2013-02-02 14:33:00,24.4,0.7,30.03,West,270,2.5,3.6,35,0.00,,---,0.00,VWS V14.01,2013-02-02 19:33:00,
2013-02-02 14:38:00,24.4,0.7,30.03,NNE,22,3.8,3.8,35,0.00,,---,0.00,VWS V14.01,2013-02-02 19:38:00,
2013-02-02 14:43:00,24.1,-0.2,30.03,West,270,2.0,5.4,34,0.00,,---,0.00,VWS V14.01,2013-02-02 19:43:00,
2013-02-02 14:48:00,24.1,1.6,30.00,West,270,2.9,4.0,37,0.00,,---,0.00,VWS V14.01,2013-02-02 19:48:00,
2013-02-02 14:53:00,23.7,0.1,30.00,NW,315,1.3,1.6,35,0.00,,---,0.00,VWS V14.01,2013-02-02 19:53:00,
2013-02-02 14:58:00,23.5,-0.1,30.00,SE,135,1.3,4.7,35,0.00,,---,0.00,VWS V14.01,2013-02-02 19:58:00,
2013-02-02 15:03:00,23.7,1.3,30.00,WNW,292,1.6,1.6,37,0.00,,---,0.00,VWS V14.01,2013-02-02 20:03:00,
2013-02-02 15:08:00,23.5,-0.1,30.00,SE,135,1.1,1.1,35,0.00,,---,0.00,VWS V14.01,2013-02-02 20:08:00,
2013-02-02 15:13:00,23.5,-0.1,30.00,NE,45,1.3,3.8,35,0.00,,---,0.00,VWS V14.01,2013-02-02 20:13:00,
2013-02-02 15:18:00,23.5,-0.1,30.00,East,90,4.0,4.0,35,0.00,,---,0.00,VWS V14.01,2013-02-02 20:18:00,
2013-02-02 15:23:00,23.4,-0.2,30.00,ESE,112,4.0,4.0,35,0.00,,---,0.00,VWS V14.01,2013-02-02 20:23:00,
2013-02-02 15:28:00,23.4,-0.2,30.00,SE,135,2.2,2.2,35,0.00,,---,0.00,VWS V14.01,2013-02-02 20:28:00,
2013-02-02 15:33:00,23.4,-0.2,30.00,WNW,292,0.9,7.2,35,0.00,,---,0.00,VWS V14.01,2013-02-02 20:33:00,
2013-02-02 15:38:00,23.4,0.4,30.00,SE,135,2.7,2.7,36,0.00,,---,0.00,VWS V14.01,2013-02-02 20:38:00,
2013-02-02 15:43:00,23.4,0.4,30.00,WSW,248,0.9,0.9,36,0.00,,---,0.00,VWS V14.01,2013-02-02 20:43:00,
2013-02-02 15:48:00,23.2,-0.4,30.00,WNW,292,3.4,3.4,35,0.00,,---,0.00,VWS V14.01,2013-02-02 20:48:00,
2013-02-02 15:53:00,23.2,0.2,30.00,East,90,2.0,2.0,36,0.00,,---,0.00,VWS V14.01,2013-02-02 20:53:00,
2013-02-02 15:58:00,23.0,0.0,30.00,SSW,202,2.9,4.3,36,0.00,,---,0.00,VWS V14.01,2013-02-02 20:58:00,
2013-02-02 16:03:00,22.8,-0.1,29.97,ENE,68,0.0,5.4,36,0.00,,---,0.00,VWS V14.01,2013-02-02 21:03:00,
2013-02-02 16:08:00,22.8,-0.1,29.97,SE,135,3.1,3.1,36,0.00,,---,0.00,VWS V14.01,2013-02-02 21:08:00,
2013-02-02 16:13:00,22.8,-0.1,29.97,East,90,2.5,2.5,36,0.00,,---,0.00,VWS V14.01,2013-02-02 21:13:00,
2013-02-02 16:18:00,22.8,0.5,30.00,SE,135,5.6,5.6,37,0.00,,---,0.00,VWS V14.01,2013-02-02 21:18:00,
2013-02-02 16:23:00,22.8,1.6,30.00,ESE,112,1.3,5.8,39,0.00,,---,0.00,VWS V14.01,2013-02-02 21:23:00,
2013-02-02 16:28:00,22.6,-0.3,30.00,SSE,158,4.9,4.9,36,0.00,,---,0.00,VWS V14.01,2013-02-02 21:28:00,
2013-02-02 16:33:00,22.5,-0.4,30.00,SE,135,6.0,6.0,36,0.00,,---,0.00,VWS V14.01,2013-02-02 21:33:00,
2013-02-02 16:38:00,22.5,0.1,30.00,ENE,68,6.3,6.3,37,0.00,,---,0.00,VWS V14.01,2013-02-02 21:38:00,
2013-02-02 16:43:00,22.3,0.0,30.00,ESE,112,1.1,2.0,37,0.00,,---,0.00,VWS V14.01,2013-02-02 21:43:00,
2013-02-02 16:48:00,22.3,1.1,30.00,East,90,2.2,2.5,39,0.00,,---,0.00,VWS V14.01,2013-02-02 21:48:00,
2013-02-02 16:53:00,22.1,0.4,30.00,East,90,1.1,3.1,38,0.00,,---,0.00,VWS V14.01,2013-02-02 21:53:00,
2013-02-02 16:58:00,21.9,0.2,30.00,ESE,112,1.1,1.1,38,0.00,,---,0.00,VWS V14.01,2013-02-02 21:58:00,
2013-02-02 17:03:00,21.9,0.2,29.97,SSW,202,1.1,1.3,38,0.00,,---,0.00,VWS V14.01,2013-02-02 22:03:00,
2013-02-02 17:08:00,21.7,0.6,29.97,SE,135,2.9,2.9,39,0.00,,---,0.00,VWS V14.01,2013-02-02 22:08:00,
2013-02-02 17:13:00,21.7,1.1,29.97,ENE,68,3.4,3.4,40,0.00,,---,0.00,VWS V14.01,2013-02-02 22:13:00,
2013-02-02 17:18:00,21.6,0.4,30.00,SSE,158,1.6,2.9,39,0.00,,---,0.00,VWS V14.01,2013-02-02 22:18:00,
2013-02-02 17:23:00,21.4,0.8,30.00,West,270,0.9,1.3,40,0.00,,---,0.00,VWS V14.01,2013-02-02 22:23:00,
2013-02-02 17:28:00,21.4,0.8,30.00,WNW,292,1.6,1.6,40,0.00,,---,0.00,VWS V14.01,2013-02-02 22:28:00,
2013-02-02 17:33:00,21.2,1.2,30.00,ESE,112,2.7,2.7,41,0.00,,---,0.00,VWS V14.01,2013-02-02 22:33:00,
2013-02-02 17:38:00,21.2,1.7,30.00,WSW,248,1.3,1.3,42,0.00,,---,0.00,VWS V14.01,2013-02-02 22:38:00,
2013-02-02 17:43:00,21.2,1.7,30.00,South,180,1.1,1.1,42,0.00,,---,0.00,VWS V14.01,2013-02-02 22:43:00,
2013-02-02 17:48:00,21.2,2.2,30.00,South,180,1.1,1.3,43,0.00,,---,0.00,VWS V14.01,2013-02-02 22:48:00,
2013-02-02 17:53:00,21.0,1.5,30.00,ESE,112,0.0,3.1,42,0.00,,---,0.00,VWS V14.01,2013-02-02 22:53:00,
2013-02-02 17:58:00,21.0,1.5,30.00,ENE,68,3.4,3.4,42,0.00,,---,0.00,VWS V14.01,2013-02-02 22:58:00,
2013-02-02 18:03:00,21.0,1.5,30.00,NNE,22,5.8,5.8,42,0.00,,---,0.00,VWS V14.01,2013-02-02 23:03:00,
2013-02-02 18:08:00,20.8,1.9,30.00,SW,225,1.6,1.6,43,0.00,,---,0.00,VWS V14.01,2013-02-02 23:08:00,
2013-02-02 18:13:00,21.0,2.0,30.00,SSE,158,1.1,1.1,43,0.00,,---,0.00,VWS V14.01,2013-02-02 23:13:00,
2013-02-02 18:18:00,21.0,2.0,30.03,SSW,202,1.6,1.6,43,0.00,,---,0.00,VWS V14.01,2013-02-02 23:18:00,
2013-02-02 18:23:00,21.0,2.0,30.03,ENE,68,1.3,1.3,43,0.00,,---,0.00,VWS V14.01,2013-02-02 23:23:00,
2013-02-02 18:28:00,21.0,2.0,30.03,SE,135,0.9,2.0,43,0.00,,---,0.00,VWS V14.01,2013-02-02 23:28:00,
2013-02-02 18:33:00,21.0,2.0,30.00,WNW,292,3.4,3.4,43,0.00,,---,0.00,VWS V14.01,2013-02-02 23:33:00,
2013-02-02 18:38:00,21.0,2.0,30.00,NW,315,1.1,2.2,43,0.00,,---,0.00,VWS V14.01,2013-02-02 23:38:00,
2013-02-02 18:43:00,21.0,2.0,30.00,WNW,292,1.3,1.6,43,0.00,,---,0.00,VWS V14.01,2013-02-02 23:43:00,
2013-02-02 18:48:00,21.0,2.0,30.00,SSE,158,8.1,8.1,43,0.00,,---,0.00,VWS V14.01,2013-02-02 23:48:00,
2013-02-02 18:53:00,21.0,2.5,30.00,SW,225,1.3,2.0,44,0.00,,---,0.00,VWS V14.01,2013-02-02 23:53:00,
2013-02-02 18:58:00,21.0,3.0,30.00,WNW,292,3.6,4.3,45,0.00,,---,0.00,VWS V14.01,2013-02-02 23:58:00,
2013-02-02 19:03:00,20.8,2.9,30.00,WNW,292,1.1,1.1,45,0.00,,---,0.00,VWS V14.01,2013-02-03 00:03:00,
2013-02-02 19:08:00,20.7,2.7,30.00,NE,45,2.5,2.5,45,0.00,,---,0.00,VWS V14.01,2013-02-03 00:08:00,
2013-02-02 19:13:00,20.5,3.0,30.00,SSE,158,2.5,3.1,46,0.00,,---,0.00,VWS V14.01,2013-02-03 00:13:00,
2013-02-02 19:19:00,20.5,3.0,30.00,West,270,1.1,2.9,46,0.00,,---,0.00,VWS V14.01,2013-02-03 00:19:00,
2013-02-02 19:24:00,20.3,3.8,30.00,SSE,158,3.4,4.0,48,0.00,,---,0.00,VWS V14.01,2013-02-03 00:24:00,
2013-02-02 19:29:00,20.1,3.6,30.00,WNW,292,3.1,4.9,48,0.00,,---,0.00,VWS V14.01,2013-02-03 00:29:00,
2013-02-02 19:34:00,20.1,3.6,29.97,SSW,202,2.5,4.3,48,0.00,,---,0.00,VWS V14.01,2013-02-03 00:34:00,
2013-02-02 19:39:00,19.8,3.3,29.97,West,270,0.0,3.8,48,0.00,,---,0.00,VWS V14.01,2013-02-03 00:39:00,
2013-02-02 19:44:00,19.8,3.7,29.97,SE,135,0.0,2.0,49,0.00,,---,0.00,VWS V14.01,2013-02-03 00:44:00,
2013-02-02 19:49:00,19.8,3.3,30.00,West,270,2.5,8.5,48,0.00,,---,0.00,VWS V14.01,2013-02-03 00:49:00,
2013-02-02 19:54:00,19.6,3.5,30.00,SE,135,4.0,4.0,49,0.00,,---,0.00,VWS V14.01,2013-02-03 00:54:00,
2013-02-02 19:59:00,19.4,3.8,30.00,WNW,292,4.9,4.9,50,0.00,,---,0.00,VWS V14.01,2013-02-03 00:59:00,
2013-02-02 20:04:00,19.4,4.2,29.97,East,90,2.9,3.4,51,0.00,,---,0.00,VWS V14.01,2013-02-03 01:04:00,
2013-02-02 20:09:00,19.2,4.5,29.97,SSE,158,1.6,2.5,52,0.00,,---,0.00,VWS V14.01,2013-02-03 01:09:00,
2013-02-02 20:14:00,19.0,4.7,29.97,ESE,112,2.0,3.6,53,0.00,,---,0.00,VWS V14.01,2013-02-03 01:14:00,
2013-02-02 20:19:00,18.9,4.6,29.97,West,270,0.9,5.8,53,0.00,,---,0.00,VWS V14.01,2013-02-03 01:19:00,
2013-02-02 20:24:00,18.9,5.0,29.97,South,180,2.7,3.1,54,0.00,,---,0.00,VWS V14.01,2013-02-03 01:24:00,
2013-02-02 20:29:00,18.7,4.8,29.97,SE,135,2.7,2.9,54,0.00,,---,0.00,VWS V14.01,2013-02-03 01:29:00,
2013-02-02 20:34:00,18.5,5.0,30.00,WNW,292,1.3,1.3,55,0.00,,---,0.00,VWS V14.01,2013-02-03 01:34:00,
2013-02-02 20:39:00,18.5,5.0,30.00,South,180,1.6,1.6,55,0.00,,---,0.00,VWS V14.01,2013-02-03 01:39:00,
2013-02-02 20:44:00,18.3,5.3,30.00,NE,45,1.6,2.9,56,0.00,,---,0.00,VWS V14.01,2013-02-03 01:44:00,
2013-02-02 20:49:00,18.3,5.7,30.00,NNE,22,2.5,2.5,57,0.00,,---,0.00,VWS V14.01,2013-02-03 01:49:00,
2013-02-02 20:54:00,18.1,5.5,30.00,East,90,3.8,3.8,57,0.00,,---,0.00,VWS V14.01,2013-02-03 01:54:00,
2013-02-02 20:59:00,18.0,5.7,30.00,WSW,248,3.6,3.6,58,0.00,,---,0.00,VWS V14.01,2013-02-03 01:59:00,
2013-02-02 21:04:00,18.0,5.7,30.00,SSE,158,0.0,0.9,58,0.00,,---,0.00,VWS V14.01,2013-02-03 02:04:00,
2013-02-02 21:09:00,17.8,6.3,30.00,SSE,158,1.3,2.2,60,0.00,,---,0.00,VWS V14.01,2013-02-03 02:09:00,
2013-02-02 21:14:00,17.8,6.6,30.00,ESE,112,1.6,1.6,61,0.00,,---,0.00,VWS V14.01,2013-02-03 02:14:00,
2013-02-02 21:19:00,17.8,7.0,30.00,East,90,2.2,2.7,62,0.00,,---,0.00,VWS V14.01,2013-02-03 02:19:00,
2013-02-02 21:24:00,17.6,7.5,30.00,East,90,1.3,4.0,64,0.00,,---,0.00,VWS V14.01,2013-02-03 02:24:00,
2013-02-02 21:29:00,17.4,8.0,30.00,ESE,112,1.3,1.3,66,0.00,,---,0.00,VWS V14.01,2013-02-03 02:29:00,
2013-02-02 21:34:00,17.4,8.0,30.00,SSE,158,0.0,1.6,66,0.00,,---,0.00,VWS V14.01,2013-02-03 02:34:00,
2013-02-02 21:39:00,17.4,7.7,30.00,SE,135,0.0,0.0,65,0.00,,---,0.00,VWS V14.01,2013-02-03 02:39:00,
2013-02-02 21:44:00,17.4,7.7,30.00,SSE,158,1.1,1.1,65,0.00,,---,0.00,VWS V14.01,2013-02-03 02:44:00,
2013-02-02 21:49:00,17.4,8.0,30.00,WSW,248,0.0,1.6,66,0.00,,---,0.00,VWS V14.01,2013-02-03 02:49:00,
2013-02-02 21:54:00,17.4,7.3,30.00,South,180,0.0,0.0,64,0.00,,---,0.00,VWS V14.01,2013-02-03 02:54:00,
2013-02-02 21:59:00,17.4,7.7,30.00,SSE,158,1.3,2.2,65,0.00,,---,0.00,VWS V14.01,2013-02-03 02:59:00,
2013-02-02 22:04:00,17.4,8.0,30.00,ESE,112,0.0,1.3,66,0.00,,---,0.00,VWS V14.01,2013-02-03 03:04:00,
2013-02-02 22:09:00,17.2,7.8,30.00,ESE,112,2.0,2.0,66,0.00,,---,0.00,VWS V14.01,2013-02-03 03:09:00,
2013-02-02 22:14:00,17.2,7.8,30.00,SE,135,2.2,2.2,66,0.00,,---,0.00,VWS V14.01,2013-02-03 03:14:00,
2013-02-02 22:19:00,17.1,8.0,29.97,SE,135,0.0,0.0,67,0.00,,---,0.00,VWS V14.01,2013-02-03 03:19:00,
2013-02-02 22:24:00,17.1,8.0,29.97,SE,135,1.1,1.1,67,0.00,,---,0.00,VWS V14.01,2013-02-03 03:24:00,
2013-02-02 22:29:00,17.1,7.7,29.97,SE,135,2.5,2.7,66,0.00,,---,0.00,VWS V14.01,2013-02-03 03:29:00,
2013-02-02 22:34:00,17.1,8.0,30.00,East,90,2.0,2.0,67,0.00,,---,0.00,VWS V14.01,2013-02-03 03:34:00,
2013-02-02 22:39:00,17.1,7.7,30.00,SE,135,0.9,1.3,66,0.00,,---,0.00,VWS V14.01,2013-02-03 03:39:00,
2013-02-02 22:44:00,17.1,7.3,30.00,SE,135,0.0,0.0,65,0.00,,---,0.00,VWS V14.01,2013-02-03 03:44:00,
2013-02-02 22:49:00,17.1,7.7,30.00,WSW,248,0.0,0.0,66,0.00,,---,0.00,VWS V14.01,2013-02-03 03:49:00,
2013-02-02 22:54:00,17.2,8.2,30.00,SSW,202,0.0,0.0,67,0.00,,---,0.00,VWS V14.01,2013-02-03 03:54:00,
2013-02-02 22:59:00,17.1,7.7,30.00,WSW,248,0.0,0.0,66,0.00,,---,0.00,VWS V14.01,2013-02-03 03:59:00,
2013-02-02 23:04:00,17.1,8.3,30.00,East,90,0.0,0.9,68,0.00,,---,0.00,VWS V14.01,2013-02-03 04:04:00,
2013-02-02 23:09:00,17.1,8.3,30.00,WSW,248,2.0,2.0,68,0.00,,---,0.00,VWS V14.01,2013-02-03 04:09:00,
2013-02-02 23:14:00,17.1,8.0,30.00,SE,135,0.0,0.9,67,0.00,,---,0.00,VWS V14.01,2013-02-03 04:14:00,
2013-02-02 23:19:00,16.9,8.5,30.00,West,270,1.1,1.1,69,0.00,,---,0.00,VWS V14.01,2013-02-03 04:19:00,
2013-02-02 23:24:00,16.9,8.2,30.00,SE,135,1.1,1.6,68,0.00,,---,0.00,VWS V14.01,2013-02-03 04:24:00,
2013-02-02 23:29:00,16.9,8.2,30.00,ESE,112,0.0,0.0,68,0.00,,---,0.00,VWS V14.01,2013-02-03 04:29:00,
2013-02-02 23:34:00,16.9,7.8,30.00,WNW,292,0.0,0.0,67,0.00,,---,0.00,VWS V14.01,2013-02-03 04:34:00,
2013-02-02 23:39:00,16.9,8.2,30.00,ESE,112,0.0,0.0,68,0.00,,---,0.00,VWS V14.01,2013-02-03 04:39:00,
2013-02-02 23:44:00,16.9,8.5,30.00,East,90,0.9,0.9,69,0.00,,---,0.00,VWS V14.01,2013-02-03 04:44:00,
2013-02-02 23:49:00,16.9,8.2,30.00,ESE,112,0.0,0.0,68,0.00,,---,0.00,VWS V14.01,2013-02-03 04:49:00,
2013-02-02 23:54:00,16.9,8.2,30.00,South,180,0.0,0.0,68,0.00,,---,0.00,VWS V14.01,2013-02-03 04:54:00,
2013-02-02 23:59:00,16.9,8.5,30.00,SE,135,1.3,1.3,69,0.00,,---,0.00,VWS V14.01,2013-02-03 04:59:00,